Weather History for Fort Smith, AR

Change the Weather History Date:

Wednesday, October 22, 2014

  Actual Average Record
Temperature  
Mean Temperature 65 °F 61 °F  
Max Temperature 76 °F 73 °F 90 °F (1939)
Min Temperature 54 °F 49 °F 32 °F (1952)
Degree Days  
Heating Degree Days 0 5  
Month to date heating degree days 39 75  
Since 1 July heating degree days 43 92  
Cooling Degree Days 0 1  
Month to date cooling degree days 74 58  
Year to date cooling degree days 2033 2036  
Growing Degree Days 14 (Base 50)    
Moisture  
Dew Point 53 °F    
Average Humidity 68    
Maximum Humidity 93    
Minimum Humidity 43    
Precipitation  
Precipitation 0.00 in 0.16 in 2.56 in (1931)
Month to date precipitation 7.62 3.04  
Year to date precipitation 37.97 36.45  
Sea Level Pressure  
Sea Level Pressure 30.15 in    
Wind  
Wind Speed 8 mph (ENE)    
Max Wind Speed 14 mph    
Max Gust Speed 18 mph    
Visibility 10 miles    
Events      
T = Trace of Precipitation, MM = Missing Value Source: NWS Daily Summary

Daily Weather History Graph

Daily Weather History Graph

Search for Another Location

Airport:

Trip Planner

Search our weather history database for the weather conditions in past years. The results will help you decide how hot, cold, wet, or windy it might be!

Date:

Astronomy

Oct. 22, 2014 Rise Set
Actual Time 7:29 AM CDT 6:33 PM CDT
Civil Twilight 7:03 AM CDT 6:59 PM CDT
Nautical Twilight 6:34 AM CDT 7:28 PM CDT
Astronomical Twilight 6:04 AM CDT 7:58 PM CDT
Moon 6:14 AM CDT (10/22) 5:58 PM CDT (10/22)
Length of Visible Light 11h 55m
Length of Day
11h 03m
Waning Crescent, 1% of the Moon is Illuminated
Oct 22
Waning Crescent
Oct 23
New
Oct 30
First Quarter
Nov 6
Full
Nov 14
Last Quarter

Hourly Weather History & Observations

Time (CDT) Temp. Dew Point Humidity Pressure Visibility Wind Dir Wind Speed Gust Speed Precip Events Conditions
12:53 AM 60.1 °F 57.0 °F 90% 30.09 in 10.0 mi ENE 4.6 mph - N/A   Clear
1:53 AM 57.9 °F 55.9 °F 93% 30.09 in 7.0 mi ENE 4.6 mph - N/A   Clear
2:53 AM 57.9 °F 55.9 °F 93% 30.11 in 7.0 mi ENE 5.8 mph - N/A   Clear
3:53 AM 57.9 °F 55.9 °F 93% 30.10 in 8.0 mi ENE 6.9 mph - N/A   Partly Cloudy
4:53 AM 57.0 °F 54.0 °F 89% 30.12 in 9.0 mi ENE 5.8 mph - N/A   Clear
5:53 AM 55.9 °F 54.0 °F 93% 30.13 in 8.0 mi ENE 6.9 mph - N/A   Clear
6:53 AM 54.0 °F 52.0 °F 93% 30.15 in 10.0 mi ENE 6.9 mph - N/A   Clear
7:53 AM 55.0 °F 51.1 °F 86% 30.18 in 10.0 mi East 6.9 mph - N/A   Clear
8:53 AM 57.9 °F 52.0 °F 81% 30.21 in 10.0 mi East 10.4 mph - N/A   Clear
9:53 AM 61.0 °F 52.0 °F 72% 30.22 in 10.0 mi ENE 10.4 mph - N/A   Partly Cloudy
10:53 AM 64.9 °F 52.0 °F 63% 30.21 in 10.0 mi ENE 12.7 mph - N/A   Clear
11:53 AM 68.0 °F 51.1 °F 55% 30.22 in 10.0 mi East 8.1 mph - N/A   Clear
12:53 PM 70.0 °F 52.0 °F 53% 30.19 in 10.0 mi ENE 11.5 mph - N/A   Clear
1:53 PM 73.0 °F 52.0 °F 48% 30.15 in 10.0 mi ESE 9.2 mph - N/A   Clear
2:53 PM 75.0 °F 52.0 °F 44% 30.13 in 10.0 mi East 8.1 mph - N/A   Clear
3:53 PM 75.0 °F 51.1 °F 43% 30.11 in 10.0 mi East 10.4 mph - N/A   Clear
4:53 PM 73.9 °F 52.0 °F 46% 30.11 in 10.0 mi East 12.7 mph - N/A   Clear
5:53 PM 72.0 °F 51.1 °F 48% 30.12 in 10.0 mi East 5.8 mph - N/A   Clear
6:53 PM 64.9 °F 53.1 °F 65% 30.13 in 10.0 mi ENE 6.9 mph - N/A   Clear
7:53 PM 63.0 °F 54.0 °F 72% 30.14 in 10.0 mi East 4.6 mph - N/A   Clear
8:53 PM 62.1 °F 53.1 °F 72% 30.15 in 10.0 mi ESE 5.8 mph - N/A   Clear
9:53 PM 61.0 °F 52.0 °F 72% 30.16 in 10.0 mi East 3.5 mph - N/A   Clear
10:53 PM 59.0 °F 53.1 °F 81% 30.17 in 10.0 mi NE 4.6 mph - N/A   Clear
11:53 PM 57.0 °F 53.1 °F 87% 30.15 in 10.0 mi ENE 5.8 mph - N/A   Clear